Time,TemperatureF,DewpointF,PressureIn,WindDirection,WindDirectionDegrees,WindSpeedMPH,WindSpeedGustMPH,Humidity,HourlyPrecipIn,Conditions,Clouds,dailyrainin,SoftwareType,DateUTC
2013-06-02 00:02:00,62.0,59.0,29.73,NE,47,1.0,3.0,90,0.00,,,0.65,,2013-06-02 05:02:00,
2013-06-02 00:12:00,62.0,59.0,29.73,NE,47,1.0,3.0,90,0.00,,,0.65,,2013-06-02 05:12:00,
2013-06-02 00:22:00,61.0,58.0,29.74,North,360,0.0,3.0,90,0.00,,,0.65,,2013-06-02 05:22:00,
2013-06-02 00:32:00,61.0,58.0,29.74,SE,132,0.0,2.0,91,0.00,,,0.65,,2013-06-02 05:32:00,
2013-06-02 00:42:00,61.0,58.0,29.74,SE,132,0.0,2.0,91,0.00,,,0.65,,2013-06-02 05:42:00,
2013-06-02 00:52:00,61.0,58.0,29.75,SSE,154,0.0,5.0,91,0.00,,,0.65,,2013-06-02 05:52:00,
2013-06-02 01:01:00,61.0,58.0,29.75,SW,217,1.0,5.0,90,0.00,,,0.65,,2013-06-02 06:01:00,
2013-06-02 01:12:00,61.0,58.0,29.75,SW,217,1.0,5.0,90,0.00,,,0.65,,2013-06-02 06:12:00,
2013-06-02 01:21:00,62.0,59.0,29.74,SW,233,1.0,4.0,90,0.00,,,0.65,,2013-06-02 06:21:00,
2013-06-02 01:32:00,62.0,59.0,29.74,SSW,200,0.0,5.0,90,0.00,,,0.65,,2013-06-02 06:32:00,
2013-06-02 01:42:00,62.0,59.0,29.74,SSW,200,0.0,5.0,90,0.00,,,0.65,,2013-06-02 06:42:00,
2013-06-02 01:52:00,61.0,58.0,29.74,NNW,340,2.0,5.0,91,0.00,,,0.65,,2013-06-02 06:52:00,
2013-06-02 02:01:00,61.0,58.0,29.74,NE,53,1.0,6.0,91,0.00,,,0.65,,2013-06-02 07:01:00,
2013-06-02 02:11:00,61.0,58.0,29.74,NE,53,1.0,6.0,91,0.00,,,0.65,,2013-06-02 07:11:00,
2013-06-02 02:21:00,61.0,58.0,29.74,North,360,1.0,6.0,91,0.00,,,0.65,,2013-06-02 07:21:00,
2013-06-02 02:32:00,61.0,58.0,29.74,NW,314,1.0,5.0,91,0.00,,,0.65,,2013-06-02 07:32:00,
2013-06-02 02:42:00,61.0,58.0,29.74,NW,314,1.0,5.0,91,0.00,,,0.65,,2013-06-02 07:42:00,
2013-06-02 02:52:00,61.0,58.0,29.74,ENE,68,1.0,9.0,91,0.00,,,0.65,,2013-06-02 07:52:00,
2013-06-02 03:01:00,61.0,58.0,29.74,NNW,331,1.0,5.0,91,0.00,,,0.65,,2013-06-02 08:01:00,
2013-06-02 03:11:00,61.0,58.0,29.74,NNW,331,1.0,5.0,91,0.00,,,0.65,,2013-06-02 08:11:00,
2013-06-02 03:21:00,60.0,58.0,29.74,ENE,76,1.0,6.0,92,0.00,,,0.65,,2013-06-02 08:21:00,
2013-06-02 03:32:00,60.0,58.0,29.74,SSW,208,1.0,6.0,92,0.00,,,0.65,,2013-06-02 08:32:00,
2013-06-02 03:41:00,60.0,58.0,29.74,SSW,208,1.0,6.0,92,0.00,,,0.65,,2013-06-02 08:41:00,
2013-06-02 03:52:00,61.0,59.0,29.75,SW,227,1.0,6.0,92,0.00,,,0.65,,2013-06-02 08:52:00,
2013-06-02 04:01:00,61.0,59.0,29.75,WNW,286,0.0,4.0,92,0.00,,,0.65,,2013-06-02 09:01:00,
2013-06-02 04:11:00,61.0,59.0,29.75,WNW,286,0.0,4.0,92,0.00,,,0.65,,2013-06-02 09:11:00,
2013-06-02 04:21:00,61.0,59.0,29.76,SW,217,1.0,3.0,93,0.00,,,0.65,,2013-06-02 09:21:00,
2013-06-02 04:33:00,61.0,59.0,29.77,NE,40,0.0,4.0,93,0.00,,,0.65,,2013-06-02 09:33:00,
2013-06-02 04:42:00,61.0,59.0,29.77,NE,40,0.0,4.0,93,0.00,,,0.65,,2013-06-02 09:42:00,
2013-06-02 04:53:00,61.0,59.0,29.77,NE,36,0.0,4.0,93,0.00,,,0.65,,2013-06-02 09:53:00,
2013-06-02 05:02:00,61.0,59.0,29.78,NNW,338,1.0,5.0,92,0.00,,,0.65,,2013-06-02 10:02:00,
2013-06-02 05:12:00,61.0,59.0,29.78,NNW,338,1.0,5.0,92,0.00,,,0.65,,2013-06-02 10:12:00,
2013-06-02 05:22:00,61.0,59.0,29.78,NW,304,0.0,3.0,92,0.00,,,0.65,,2013-06-02 10:22:00,
2013-06-02 05:32:00,61.0,59.0,29.79,West,270,2.0,6.0,92,0.00,,,0.65,,2013-06-02 10:32:00,
2013-06-02 05:42:00,61.0,59.0,29.79,West,270,2.0,6.0,92,0.00,,,0.65,,2013-06-02 10:42:00,
2013-06-02 05:52:00,62.0,60.0,29.80,North,360,1.0,7.0,92,0.00,,,0.65,,2013-06-02 10:52:00,
2013-06-02 06:02:00,62.0,60.0,29.81,NW,312,1.0,4.0,92,0.00,,,0.65,,2013-06-02 11:02:00,
2013-06-02 06:12:00,62.0,60.0,29.81,NW,312,1.0,4.0,92,0.00,,,0.65,,2013-06-02 11:12:00,
2013-06-02 06:21:00,62.0,59.0,29.82,NNW,346,2.0,8.0,91,0.00,,,0.65,,2013-06-02 11:21:00,
2013-06-02 06:32:00,62.0,59.0,29.83,NNW,343,1.0,6.0,91,0.00,,,0.65,,2013-06-02 11:32:00,
2013-06-02 06:42:00,62.0,59.0,29.83,NNW,343,1.0,6.0,91,0.00,,,0.65,,2013-06-02 11:42:00,
2013-06-02 06:52:00,61.0,58.0,29.83,NNE,20,2.0,6.0,91,0.00,,,0.65,,2013-06-02 11:52:00,
2013-06-02 07:01:00,61.0,58.0,29.83,North,360,1.0,6.0,91,0.00,,,0.65,,2013-06-02 12:01:00,
2013-06-02 07:11:00,61.0,58.0,29.83,North,360,1.0,6.0,91,0.00,,,0.65,,2013-06-02 12:11:00,
2013-06-02 07:21:00,61.0,58.0,29.83,NW,317,2.0,6.0,91,0.00,,,0.65,,2013-06-02 12:21:00,
2013-06-02 07:32:00,61.0,58.0,29.83,ENE,59,3.0,11.0,91,0.00,,,0.65,,2013-06-02 12:32:00,
2013-06-02 07:42:00,61.0,58.0,29.83,ENE,59,3.0,11.0,91,0.00,,,0.65,,2013-06-02 12:42:00,
2013-06-02 07:52:00,61.0,58.0,29.83,NNE,22,4.0,9.0,90,0.00,,,0.65,,2013-06-02 12:52:00,
2013-06-02 08:01:00,61.0,58.0,29.84,NNE,26,4.0,13.0,89,0.00,,,0.65,,2013-06-02 13:01:00,
2013-06-02 08:11:00,61.0,58.0,29.84,NNE,26,4.0,13.0,89,0.00,,,0.65,,2013-06-02 13:11:00,
2013-06-02 08:21:00,61.0,57.0,29.85,NNW,333,4.0,10.0,88,0.00,,,0.65,,2013-06-02 13:21:00,
2013-06-02 08:32:00,61.0,57.0,29.86,NNW,342,3.0,10.0,88,0.00,,,0.65,,2013-06-02 13:32:00,
2013-06-02 08:42:00,61.0,57.0,29.86,NNW,342,3.0,10.0,88,0.00,,,0.65,,2013-06-02 13:42:00,
2013-06-02 08:52:00,60.0,56.0,29.86,NNE,24,5.0,11.0,87,0.00,,,0.65,,2013-06-02 13:52:00,
2013-06-02 09:02:00,60.0,56.0,29.87,North,10,5.0,9.0,86,0.00,,,0.65,,2013-06-02 14:02:00,
2013-06-02 09:11:00,60.0,56.0,29.87,North,10,5.0,9.0,86,0.00,,,0.65,,2013-06-02 14:11:00,
2013-06-02 09:21:00,60.0,55.0,29.87,WNW,283,7.0,11.0,84,0.00,,,0.65,,2013-06-02 14:21:00,
2013-06-02 09:32:00,60.0,54.0,29.88,WNW,291,5.0,12.0,81,0.00,,,0.65,,2013-06-02 14:32:00,
2013-06-02 09:42:00,60.0,54.0,29.88,WNW,291,5.0,12.0,81,0.00,,,0.65,,2013-06-02 14:42:00,
2013-06-02 09:52:00,60.0,55.0,29.88,NW,325,4.0,9.0,83,0.00,,,0.65,,2013-06-02 14:52:00,
2013-06-02 10:01:00,60.0,54.0,29.88,NNE,15,7.0,11.0,81,0.00,,,0.65,,2013-06-02 15:01:00,
2013-06-02 10:11:00,60.0,54.0,29.88,NNE,15,7.0,11.0,81,0.00,,,0.65,,2013-06-02 15:11:00,
2013-06-02 10:21:00,60.0,54.0,29.88,North,9,6.0,13.0,82,0.00,,,0.65,,2013-06-02 15:21:00,
2013-06-02 10:33:00,60.0,53.0,29.89,North,5,6.0,13.0,77,0.00,,,0.65,,2013-06-02 15:33:00,
2013-06-02 10:43:00,60.0,53.0,29.89,North,5,6.0,13.0,77,0.00,,,0.65,,2013-06-02 15:43:00,
2013-06-02 10:53:00,60.0,53.0,29.90,NE,39,4.0,11.0,78,0.00,,,0.65,,2013-06-02 15:53:00,
2013-06-02 11:03:00,60.0,54.0,29.91,NNE,28,3.0,11.0,80,0.00,,,0.65,,2013-06-02 16:03:00,
2013-06-02 11:13:00,60.0,54.0,29.91,NNE,28,3.0,11.0,80,0.00,,,0.65,,2013-06-02 16:13:00,
2013-06-02 11:23:00,60.0,53.0,29.92,NNW,328,5.0,10.0,78,0.00,,,0.65,,2013-06-02 16:23:00,
2013-06-02 11:33:00,60.0,54.0,29.92,NNE,14,4.0,8.0,80,0.00,,,0.65,,2013-06-02 16:33:00,
2013-06-02 11:42:00,60.0,54.0,29.92,NNE,14,4.0,8.0,80,0.00,,,0.65,,2013-06-02 16:42:00,
2013-06-02 11:52:00,59.0,53.0,29.93,NNE,29,4.0,10.0,81,0.00,,,0.65,,2013-06-02 16:52:00,
2013-06-02 12:02:00,60.0,54.0,29.92,NNE,20,3.0,8.0,81,0.00,,,0.65,,2013-06-02 17:02:00,
2013-06-02 12:12:00,60.0,54.0,29.92,NNE,20,3.0,8.0,81,0.00,,,0.65,,2013-06-02 17:12:00,
2013-06-02 12:22:00,59.0,53.0,29.93,North,360,5.0,11.0,80,0.00,,,0.65,,2013-06-02 17:22:00,
2013-06-02 12:32:00,60.0,54.0,29.93,NNE,14,5.0,10.0,80,0.00,,,0.65,,2013-06-02 17:32:00,
2013-06-02 12:42:00,61.0,54.0,29.93,North,360,8.0,11.0,78,0.00,,,0.65,,2013-06-02 17:42:00,
2013-06-02 12:52:00,61.0,54.0,29.93,North,360,8.0,11.0,78,0.00,,,0.65,,2013-06-02 17:52:00,
2013-06-02 13:02:00,61.0,54.0,29.93,NE,45,4.0,10.0,78,0.00,,,0.65,,2013-06-02 18:02:00,
2013-06-02 13:11:00,61.0,54.0,29.93,NE,45,4.0,10.0,78,0.00,,,0.65,,2013-06-02 18:11:00,
2013-06-02 13:21:00,60.0,53.0,29.94,North,360,3.0,11.0,77,0.00,,,0.65,,2013-06-02 18:21:00,
2013-06-02 13:32:00,60.0,52.0,29.95,WNW,302,4.0,10.0,76,0.00,,,0.65,,2013-06-02 18:32:00,
2013-06-02 13:42:00,60.0,53.0,29.95,NE,51,1.0,7.0,77,0.00,,,0.65,,2013-06-02 18:42:00,
2013-06-02 13:52:00,60.0,53.0,29.95,NE,51,1.0,7.0,77,0.00,,,0.65,,2013-06-02 18:52:00,
2013-06-02 14:01:00,60.0,52.0,29.95,North,350,5.0,8.0,76,0.00,,,0.65,,2013-06-02 19:01:00,
2013-06-02 14:11:00,60.0,52.0,29.95,North,350,5.0,8.0,76,0.00,,,0.65,,2013-06-02 19:11:00,
2013-06-02 14:21:00,60.0,53.0,29.95,NNE,22,4.0,9.0,78,0.00,,,0.65,,2013-06-02 19:21:00,
2013-06-02 14:32:00,59.0,53.0,29.95,NE,37,3.0,9.0,80,0.00,,,0.65,,2013-06-02 19:32:00,
2013-06-02 14:42:00,59.0,53.0,29.95,NE,37,3.0,9.0,80,0.00,,,0.65,,2013-06-02 19:42:00,
2013-06-02 14:52:00,59.0,52.0,29.96,North,9,4.0,9.0,79,0.00,,,0.65,,2013-06-02 19:52:00,
2013-06-02 15:02:00,59.0,53.0,29.96,North,5,2.0,9.0,80,0.00,,,0.65,,2013-06-02 20:02:00,
2013-06-02 15:11:00,59.0,53.0,29.96,North,5,2.0,9.0,80,0.00,,,0.65,,2013-06-02 20:11:00,
2013-06-02 15:22:00,60.0,53.0,29.96,ENE,63,3.0,7.0,79,0.00,,,0.65,,2013-06-02 20:22:00,
2013-06-02 15:32:00,60.0,52.0,29.96,NNW,330,0.0,5.0,75,0.00,,,0.65,,2013-06-02 20:32:00,
2013-06-02 15:42:00,60.0,52.0,29.96,NNW,330,0.0,5.0,75,0.00,,,0.65,,2013-06-02 20:42:00,
2013-06-02 15:52:00,60.0,52.0,29.96,NNE,16,3.0,7.0,75,0.00,,,0.65,,2013-06-02 20:52:00,
2013-06-02 16:01:00,59.0,52.0,29.96,NNE,26,3.0,8.0,77,0.00,,,0.65,,2013-06-02 21:01:00,
2013-06-02 16:12:00,59.0,52.0,29.96,NNE,26,3.0,8.0,77,0.00,,,0.65,,2013-06-02 21:12:00,
2013-06-02 16:21:00,59.0,52.0,29.97,NE,49,3.0,9.0,77,0.00,,,0.65,,2013-06-02 21:21:00,
2013-06-02 16:33:00,59.0,52.0,29.97,ENE,65,4.0,9.0,78,0.00,,,0.64,,2013-06-02 21:33:00,
2013-06-02 16:42:00,59.0,52.0,29.97,ENE,65,4.0,9.0,78,0.00,,,0.64,,2013-06-02 21:42:00,
2013-06-02 16:53:00,59.0,52.0,29.97,North,5,4.0,8.0,77,0.00,,,0.64,,2013-06-02 21:53:00,
2013-06-02 17:03:00,58.0,51.0,29.97,North,11,4.0,10.0,77,0.00,,,0.64,,2013-06-02 22:03:00,
2013-06-02 17:12:00,58.0,51.0,29.97,North,11,4.0,10.0,77,0.00,,,0.64,,2013-06-02 22:12:00,
2013-06-02 17:23:00,58.0,51.0,29.97,NNE,23,3.0,9.0,77,0.00,,,0.64,,2013-06-02 22:23:00,
2013-06-02 17:33:00,58.0,51.0,29.98,NNE,26,2.0,8.0,77,0.00,,,0.64,,2013-06-02 22:33:00,
2013-06-02 17:42:00,58.0,51.0,29.98,NNE,26,2.0,8.0,77,0.00,,,0.64,,2013-06-02 22:42:00,
2013-06-02 17:52:00,58.0,51.0,29.98,NNE,13,3.0,7.0,77,0.00,,,0.64,,2013-06-02 22:52:00,
2013-06-02 18:02:00,58.0,51.0,29.97,NNE,25,1.0,6.0,78,0.00,,,0.64,,2013-06-02 23:02:00,
2013-06-02 18:12:00,58.0,51.0,29.97,NNE,25,1.0,6.0,78,0.00,,,0.64,,2013-06-02 23:12:00,
2013-06-02 18:22:00,57.0,50.0,29.98,North,10,3.0,6.0,76,0.00,,,0.64,,2013-06-02 23:22:00,
2013-06-02 18:32:00,58.0,51.0,29.98,North,5,3.0,6.0,77,0.00,,,0.01,,2013-06-02 23:32:00,
2013-06-02 18:42:00,58.0,51.0,29.98,North,5,3.0,6.0,77,0.00,,,0.01,,2013-06-02 23:42:00,
2013-06-02 18:52:00,58.0,50.0,29.98,North,10,5.0,8.0,75,0.00,,,0.01,,2013-06-02 23:52:00,
2013-06-02 19:01:00,58.0,50.0,29.97,NE,44,3.0,6.0,76,0.00,,,0.01,,2013-06-03 00:01:00,
2013-06-02 19:12:00,58.0,50.0,29.97,NE,44,3.0,6.0,76,0.00,,,0.01,,2013-06-03 00:12:00,
2013-06-02 19:21:00,58.0,50.0,29.97,NE,46,3.0,6.0,75,0.00,,,0.01,,2013-06-03 00:21:00,
2013-06-02 19:32:00,58.0,50.0,29.98,NE,36,3.0,5.0,76,0.00,,,0.00,,2013-06-03 00:32:00,
2013-06-02 19:42:00,58.0,50.0,29.98,NE,36,3.0,5.0,76,0.00,,,0.00,,2013-06-03 00:42:00,
2013-06-02 19:51:00,57.0,51.0,29.98,ENE,64,3.0,8.0,80,0.00,,,0.00,,2013-06-03 00:51:00,
2013-06-02 20:01:00,56.0,51.0,29.98,ESE,121,1.0,4.0,84,0.00,,,0.00,,2013-06-03 01:01:00,
2013-06-02 20:11:00,56.0,51.0,29.98,ESE,121,1.0,4.0,84,0.00,,,0.00,,2013-06-03 01:11:00,
2013-06-02 20:21:00,56.0,52.0,29.98,East,95,0.0,5.0,88,0.00,,,0.00,,2013-06-03 01:21:00,
2013-06-02 20:32:00,55.0,52.0,29.98,SE,124,0.0,4.0,89,0.00,,,0.00,,2013-06-03 01:32:00,
2013-06-02 20:42:00,55.0,52.0,29.98,SE,124,0.0,4.0,89,0.00,,,0.00,,2013-06-03 01:42:00,
2013-06-02 20:52:00,55.0,52.0,29.99,ENE,72,0.0,3.0,90,0.00,,,0.00,,2013-06-03 01:52:00,
2013-06-02 21:02:00,54.0,51.0,29.99,ESE,119,1.0,4.0,89,0.00,,,0.00,,2013-06-03 02:02:00,
2013-06-02 21:12:00,54.0,51.0,29.99,ESE,119,1.0,4.0,89,0.00,,,0.00,,2013-06-03 02:12:00,
2013-06-02 21:22:00,54.0,51.0,30.00,NNW,332,1.0,3.0,89,0.00,,,0.00,,2013-06-03 02:22:00,
2013-06-02 21:32:00,54.0,51.0,30.00,ENE,58,1.0,5.0,90,0.00,,,0.00,,2013-06-03 02:32:00,
2013-06-02 21:42:00,54.0,51.0,30.00,ENE,58,1.0,5.0,90,0.00,,,0.00,,2013-06-03 02:42:00,
2013-06-02 21:52:00,54.0,51.0,30.01,East,92,0.0,5.0,90,0.00,,,0.00,,2013-06-03 02:52:00,
2013-06-02 22:02:00,54.0,51.0,30.01,ENE,74,1.0,4.0,90,0.00,,,0.00,,2013-06-03 03:02:00,
2013-06-02 22:12:00,54.0,51.0,30.01,ENE,74,1.0,4.0,90,0.00,,,0.00,,2013-06-03 03:12:00,
2013-06-02 22:22:00,54.0,51.0,30.01,ESE,108,0.0,3.0,90,0.00,,,0.00,,2013-06-03 03:22:00,
2013-06-02 22:33:00,54.0,51.0,30.01,ENE,62,0.0,3.0,91,0.00,,,0.00,,2013-06-03 03:33:00,
2013-06-02 22:43:00,54.0,51.0,30.01,ENE,62,0.0,3.0,91,0.00,,,0.00,,2013-06-03 03:43:00,
2013-06-02 22:53:00,53.0,50.0,30.02,SSE,163,0.0,4.0,89,0.00,,,0.00,,2013-06-03 03:53:00,
2013-06-02 23:03:00,53.0,50.0,30.02,NE,46,0.0,4.0,90,0.00,,,0.00,,2013-06-03 04:03:00,
2013-06-02 23:13:00,53.0,50.0,30.02,NE,46,0.0,4.0,90,0.00,,,0.00,,2013-06-03 04:13:00,
2013-06-02 23:23:00,53.0,50.0,30.02,SE,146,1.0,4.0,90,0.00,,,0.00,,2013-06-03 04:23:00,
2013-06-02 23:33:00,53.0,50.0,30.02,South,180,0.0,4.0,90,0.00,,,0.00,,2013-06-03 04:33:00,
2013-06-02 23:42:00,53.0,50.0,30.02,South,180,0.0,4.0,90,0.00,,,0.00,,2013-06-03 04:42:00,
2013-06-02 23:53:00,53.0,50.0,30.02,South,179,0.0,3.0,90,0.00,,,0.00,,2013-06-03 04:53:00,